Year,Month,Day,Hour,Minute,Value (Times are PST for temperature in C)
2009,09,23,00,00,14.00
2009,09,23,00,01,14.00
2009,09,23,00,02,13.90
2009,09,23,00,03,13.90
2009,09,23,00,04,13.80
2009,09,23,00,05,13.80
2009,09,23,00,06,13.80
2009,09,23,00,07,13.70
2009,09,23,00,08,13.70
2009,09,23,00,09,13.70
2009,09,23,00,10,13.70
2009,09,23,00,11,13.60
2009,09,23,00,12,13.60
2009,09,23,00,13,13.60
2009,09,23,00,14,13.60
2009,09,23,00,15,13.60
2009,09,23,00,16,13.70
2009,09,23,00,17,13.70
2009,09,23,00,18,13.70
2009,09,23,00,19,13.70
2009,09,23,00,20,13.70
2009,09,23,00,21,13.70
2009,09,23,00,22,13.70
2009,09,23,00,23,13.80
2009,09,23,00,24,13.80
2009,09,23,00,25,13.80
2009,09,23,00,26,13.80
2009,09,23,00,27,13.80
2009,09,23,00,28,13.70
2009,09,23,00,29,13.70
2009,09,23,00,30,13.70
2009,09,23,00,31,13.70
2009,09,23,00,32,13.70
2009,09,23,00,33,13.70
2009,09,23,00,34,13.60
2009,09,23,00,35,13.60
2009,09,23,00,36,13.60
2009,09,23,00,37,13.60
2009,09,23,00,38,13.60
2009,09,23,00,39,13.60
2009,09,23,00,40,13.50
2009,09,23,00,41,13.50
2009,09,23,00,42,13.50
2009,09,23,00,43,13.40
2009,09,23,00,44,13.40
2009,09,23,00,45,13.40
2009,09,23,00,46,13.40
2009,09,23,00,47,13.40
2009,09,23,00,48,13.40
2009,09,23,00,49,13.40
2009,09,23,00,50,13.40
2009,09,23,00,51,13.50
2009,09,23,00,52,13.40
2009,09,23,00,53,13.40
2009,09,23,00,54,13.40
2009,09,23,00,55,13.50
2009,09,23,00,56,13.50
2009,09,23,00,57,13.50
2009,09,23,00,58,13.50
2009,09,23,00,59,13.40
2009,09,23,01,00,13.40
2009,09,23,01,01,13.40
2009,09,23,01,02,13.40
2009,09,23,01,03,13.40
2009,09,23,01,04,13.40
2009,09,23,01,05,13.40
2009,09,23,01,06,13.40
2009,09,23,01,07,13.40
2009,09,23,01,08,13.40
2009,09,23,01,09,13.40
2009,09,23,01,10,13.40
2009,09,23,01,11,13.40
2009,09,23,01,12,13.30
2009,09,23,01,13,13.30
2009,09,23,01,14,13.30
2009,09,23,01,15,13.30
2009,09,23,01,16,13.30
2009,09,23,01,17,13.30
2009,09,23,01,18,13.30
2009,09,23,01,19,13.30
2009,09,23,01,20,13.30
2009,09,23,01,21,13.30
2009,09,23,01,22,13.30
2009,09,23,01,23,13.20
2009,09,23,01,24,13.20
2009,09,23,01,25,13.20
2009,09,23,01,26,13.20
2009,09,23,01,27,13.20
2009,09,23,01,28,13.20
2009,09,23,01,29,13.20
2009,09,23,01,30,13.20
2009,09,23,01,31,13.20
2009,09,23,01,32,13.20
2009,09,23,01,33,13.20
2009,09,23,01,34,13.20
2009,09,23,01,35,13.20
2009,09,23,01,36,13.20
2009,09,23,01,37,13.20
2009,09,23,01,38,13.20
2009,09,23,01,39,13.10
2009,09,23,01,40,13.10
2009,09,23,01,41,13.10
2009,09,23,01,42,13.10
2009,09,23,01,43,13.10
2009,09,23,01,44,13.10
2009,09,23,01,45,13.10
2009,09,23,01,46,13.10
2009,09,23,01,47,13.00
2009,09,23,01,48,13.00
2009,09,23,01,49,13.10
2009,09,23,01,50,13.10
2009,09,23,01,51,13.10
2009,09,23,01,52,13.10
2009,09,23,01,53,13.10
2009,09,23,01,54,13.10
2009,09,23,01,55,13.10
2009,09,23,01,56,13.10
2009,09,23,01,57,13.00
2009,09,23,01,58,13.00
2009,09,23,01,59,13.00
2009,09,23,02,00,12.90
2009,09,23,02,01,12.90
2009,09,23,02,02,12.90
2009,09,23,02,03,12.90
2009,09,23,02,04,12.90
2009,09,23,02,05,12.90
2009,09,23,02,06,12.90
2009,09,23,02,07,12.90
2009,09,23,02,08,12.90
2009,09,23,02,09,12.80
2009,09,23,02,10,12.80
2009,09,23,02,11,12.80
2009,09,23,02,12,12.80
2009,09,23,02,13,12.80
2009,09,23,02,14,12.80
2009,09,23,02,15,12.80
2009,09,23,02,16,12.80
2009,09,23,02,17,12.80
2009,09,23,02,18,12.80
2009,09,23,02,19,12.80
2009,09,23,02,20,12.80
2009,09,23,02,21,12.80
2009,09,23,02,22,12.80
2009,09,23,02,23,12.80
2009,09,23,02,24,12.80
2009,09,23,02,25,12.80
2009,09,23,02,26,12.80
2009,09,23,02,27,12.80
2009,09,23,02,28,12.80
2009,09,23,02,29,12.80
2009,09,23,02,30,12.80
2009,09,23,02,31,12.70
2009,09,23,02,32,12.70
2009,09,23,02,33,12.70
2009,09,23,02,34,12.70
2009,09,23,02,35,12.70
2009,09,23,02,36,12.70
2009,09,23,02,37,12.70
2009,09,23,02,38,12.70
2009,09,23,02,39,12.70
2009,09,23,02,40,12.70
2009,09,23,02,41,12.60
2009,09,23,02,42,12.60
2009,09,23,02,43,12.60
2009,09,23,02,44,12.60
2009,09,23,02,45,12.60
2009,09,23,02,46,12.60
2009,09,23,02,47,12.60
2009,09,23,02,48,12.60
2009,09,23,02,49,12.60
2009,09,23,02,50,12.60
2009,09,23,02,51,12.70
2009,09,23,02,52,12.70
2009,09,23,02,53,12.70
2009,09,23,02,54,12.70
2009,09,23,02,55,12.60
2009,09,23,02,56,12.60
2009,09,23,02,57,12.60
2009,09,23,02,58,12.60
2009,09,23,02,59,12.60
2009,09,23,03,00,12.60
2009,09,23,03,01,12.60
2009,09,23,03,02,12.60
2009,09,23,03,03,12.70
2009,09,23,03,04,12.70
2009,09,23,03,05,12.70
2009,09,23,03,06,12.70
2009,09,23,03,07,12.70
2009,09,23,03,08,12.70
2009,09,23,03,09,12.70
2009,09,23,03,10,12.70
2009,09,23,03,11,12.70
2009,09,23,03,12,12.70
2009,09,23,03,13,12.70
2009,09,23,03,14,12.70
2009,09,23,03,15,12.70
2009,09,23,03,16,12.70
2009,09,23,03,17,12.70
2009,09,23,03,18,12.60
2009,09,23,03,19,12.60
2009,09,23,03,20,12.50
2009,09,23,03,21,12.50
2009,09,23,03,22,12.50
2009,09,23,03,23,12.50
2009,09,23,03,24,12.40
2009,09,23,03,25,12.40
2009,09,23,03,26,12.40
2009,09,23,03,27,12.40
2009,09,23,03,28,12.40
2009,09,23,03,29,12.40
2009,09,23,03,30,12.40
2009,09,23,03,31,12.40
2009,09,23,03,32,12.40
2009,09,23,03,33,12.40
2009,09,23,03,34,12.40
2009,09,23,03,35,12.40
2009,09,23,03,36,12.40
2009,09,23,03,37,12.40
2009,09,23,03,38,12.40
2009,09,23,03,39,12.40
2009,09,23,03,40,12.40
2009,09,23,03,41,12.40
2009,09,23,03,42,12.40
2009,09,23,03,43,12.30
2009,09,23,03,44,12.30
2009,09,23,03,45,12.30
2009,09,23,03,46,12.20
2009,09,23,03,47,12.20
2009,09,23,03,48,12.20
2009,09,23,03,49,12.10
2009,09,23,03,50,12.10
2009,09,23,03,51,12.10
2009,09,23,03,52,12.10
2009,09,23,03,53,12.10
2009,09,23,03,54,12.10
2009,09,23,03,55,12.10
2009,09,23,03,56,12.10
2009,09,23,03,57,12.10
2009,09,23,03,58,12.10
2009,09,23,03,59,12.20
2009,09,23,04,00,12.20
2009,09,23,04,01,12.20
2009,09,23,04,02,12.20
2009,09,23,04,03,12.20
2009,09,23,04,04,12.20
2009,09,23,04,05,12.20
2009,09,23,04,06,12.10
2009,09,23,04,07,12.10
2009,09,23,04,08,12.10
2009,09,23,04,09,12.00
2009,09,23,04,10,12.00
2009,09,23,04,11,11.90
2009,09,23,04,12,11.90
2009,09,23,04,13,11.90
2009,09,23,04,14,11.90
2009,09,23,04,15,11.90
2009,09,23,04,16,11.90
2009,09,23,04,17,11.90
2009,09,23,04,18,11.90
2009,09,23,04,19,11.90
2009,09,23,04,20,11.90
2009,09,23,04,21,11.90
2009,09,23,04,22,11.90
2009,09,23,04,23,11.90
2009,09,23,04,24,11.90
2009,09,23,04,25,11.80
2009,09,23,04,26,11.80
2009,09,23,04,27,11.80
2009,09,23,04,28,11.80
2009,09,23,04,29,11.80
2009,09,23,04,30,11.80
2009,09,23,04,31,11.80
2009,09,23,04,32,11.80
2009,09,23,04,33,11.80
2009,09,23,04,34,11.80
2009,09,23,04,35,11.80
2009,09,23,04,36,11.70
2009,09,23,04,37,11.70
2009,09,23,04,38,11.70
2009,09,23,04,39,11.70
2009,09,23,04,40,11.70
2009,09,23,04,41,11.70
2009,09,23,04,42,11.60
2009,09,23,04,43,11.60
2009,09,23,04,44,11.60
2009,09,23,04,45,11.60
2009,09,23,04,46,11.50
2009,09,23,04,47,11.50
2009,09,23,04,48,11.40
2009,09,23,04,49,11.40
2009,09,23,04,50,11.40
2009,09,23,04,51,11.40
2009,09,23,04,52,11.30
2009,09,23,04,53,11.30
2009,09,23,04,54,11.30
2009,09,23,04,55,11.30
2009,09,23,04,56,11.30
2009,09,23,04,57,11.30
2009,09,23,04,58,11.30
2009,09,23,04,59,11.40
2009,09,23,05,00,11.40
2009,09,23,05,01,11.40
2009,09,23,05,02,11.40
2009,09,23,05,03,11.40
2009,09,23,05,04,11.40
2009,09,23,05,05,11.40
2009,09,23,05,06,11.40
2009,09,23,05,07,11.40
2009,09,23,05,08,11.40
2009,09,23,05,09,11.40
2009,09,23,05,10,11.40
2009,09,23,05,11,11.40
2009,09,23,05,12,11.40
2009,09,23,05,13,11.40
2009,09,23,05,14,11.40
2009,09,23,05,15,11.40
2009,09,23,05,16,11.40
2009,09,23,05,17,11.40
2009,09,23,05,18,11.40
2009,09,23,05,19,11.40
2009,09,23,05,20,11.30
2009,09,23,05,21,11.30
2009,09,23,05,22,11.30
2009,09,23,05,23,11.30
2009,09,23,05,24,11.30
2009,09,23,05,25,11.30
2009,09,23,05,26,11.30
2009,09,23,05,27,11.30
2009,09,23,05,28,11.30
2009,09,23,05,29,11.30
2009,09,23,05,30,11.30
2009,09,23,05,31,11.30
2009,09,23,05,32,11.30
2009,09,23,05,33,11.30
2009,09,23,05,34,11.30
2009,09,23,05,35,11.30
2009,09,23,05,36,11.30
2009,09,23,05,37,11.30
2009,09,23,05,38,11.30
2009,09,23,05,39,11.30
2009,09,23,05,40,11.30
2009,09,23,05,41,11.30
2009,09,23,05,42,11.30
2009,09,23,05,43,11.30
2009,09,23,05,44,11.30
2009,09,23,05,45,11.30
2009,09,23,05,46,11.30
2009,09,23,05,47,11.30
2009,09,23,05,48,11.30
2009,09,23,05,49,11.30
2009,09,23,05,50,11.30
2009,09,23,05,51,11.30
2009,09,23,05,52,11.30
2009,09,23,05,53,11.30
2009,09,23,05,54,11.20
2009,09,23,05,55,11.20
2009,09,23,05,56,11.20
2009,09,23,05,57,11.20
2009,09,23,05,58,11.20
2009,09,23,05,59,11.10
2009,09,23,06,00,11.10
2009,09,23,06,01,11.10
2009,09,23,06,02,11.10
2009,09,23,06,03,11.10
2009,09,23,06,04,11.10
2009,09,23,06,05,11.10
2009,09,23,06,06,11.10
2009,09,23,06,07,11.10
2009,09,23,06,08,11.10
2009,09,23,06,09,11.10
2009,09,23,06,10,11.10
2009,09,23,06,11,11.10
2009,09,23,06,12,11.20
2009,09,23,06,13,11.20
2009,09,23,06,14,11.20
2009,09,23,06,15,11.20
2009,09,23,06,16,11.20
2009,09,23,06,17,11.30
2009,09,23,06,18,11.30
2009,09,23,06,19,11.30
2009,09,23,06,20,11.30
2009,09,23,06,21,11.30
2009,09,23,06,22,11.30
2009,09,23,06,23,11.30
2009,09,23,06,24,11.30
2009,09,23,06,25,11.30
2009,09,23,06,26,11.30
2009,09,23,06,27,11.30
2009,09,23,06,28,11.30
2009,09,23,06,29,11.30
2009,09,23,06,30,11.30
2009,09,23,06,31,11.30
2009,09,23,06,32,11.30
2009,09,23,06,33,11.30
2009,09,23,06,34,11.30
2009,09,23,06,35,11.30
2009,09,23,06,36,11.20
2009,09,23,06,37,11.20
2009,09,23,06,38,11.20
2009,09,23,06,39,11.10
2009,09,23,06,40,11.10
2009,09,23,06,41,11.00
2009,09,23,06,42,11.00
2009,09,23,06,43,11.00
2009,09,23,06,44,10.90
2009,09,23,06,45,10.90
2009,09,23,06,46,10.90
2009,09,23,06,47,11.00
2009,09,23,06,48,11.00
2009,09,23,06,49,11.00
2009,09,23,06,50,11.00
2009,09,23,06,51,11.00
2009,09,23,06,52,11.00
2009,09,23,06,53,11.10
2009,09,23,06,54,11.10
2009,09,23,06,55,11.10
2009,09,23,06,56,11.10
2009,09,23,06,57,11.10
2009,09,23,06,58,11.10
2009,09,23,06,59,11.10
2009,09,23,07,00,11.10
2009,09,23,07,01,11.10
2009,09,23,07,02,11.10
2009,09,23,07,03,11.10
2009,09,23,07,04,11.10
2009,09,23,07,05,11.00
2009,09,23,07,06,11.00
2009,09,23,07,07,11.00
2009,09,23,07,08,11.00
2009,09,23,07,09,11.00
2009,09,23,07,10,11.00
2009,09,23,07,11,10.90
2009,09,23,07,12,11.00
2009,09,23,07,13,11.00
2009,09,23,07,14,11.00
2009,09,23,07,15,11.00
2009,09,23,07,16,11.00
2009,09,23,07,17,10.90
2009,09,23,07,18,10.90
2009,09,23,07,19,10.90
2009,09,23,07,20,10.90
2009,09,23,07,21,10.90
2009,09,23,07,22,10.90
2009,09,23,07,23,10.90
2009,09,23,07,24,10.90
2009,09,23,07,25,10.90
2009,09,23,07,26,10.90
2009,09,23,07,27,10.90
2009,09,23,07,28,10.90
2009,09,23,07,29,10.90
2009,09,23,07,30,10.90
2009,09,23,07,31,10.90
2009,09,23,07,32,10.90
2009,09,23,07,33,10.90
2009,09,23,07,34,10.90
2009,09,23,07,35,10.90
2009,09,23,07,36,10.90
2009,09,23,07,37,10.90
2009,09,23,07,38,10.90
2009,09,23,07,39,10.90
2009,09,23,07,40,10.90
2009,09,23,07,41,10.90
2009,09,23,07,42,11.00
2009,09,23,07,43,11.00
2009,09,23,07,44,11.00
2009,09,23,07,45,11.00
2009,09,23,07,46,11.10
2009,09,23,07,47,11.10
2009,09,23,07,48,11.20
2009,09,23,07,49,11.20
2009,09,23,07,50,11.30
2009,09,23,07,51,11.30
2009,09,23,07,52,11.30
2009,09,23,07,53,11.30
2009,09,23,07,54,11.30
2009,09,23,07,55,11.30
2009,09,23,07,56,11.40
2009,09,23,07,57,11.40
2009,09,23,07,58,11.40
2009,09,23,07,59,11.40
2009,09,23,08,00,11.40
2009,09,23,08,01,11.40
2009,09,23,08,02,11.40
2009,09,23,08,03,11.40
2009,09,23,08,04,11.50
2009,09,23,08,05,11.50
2009,09,23,08,06,11.50
2009,09,23,08,07,11.50
2009,09,23,08,08,11.60
2009,09,23,08,09,11.60
2009,09,23,08,10,11.60
2009,09,23,08,11,11.60
2009,09,23,08,12,11.70
2009,09,23,08,13,11.70
2009,09,23,08,14,11.70
2009,09,23,08,15,11.80
2009,09,23,08,16,11.80
2009,09,23,08,17,11.80
2009,09,23,08,18,11.90
2009,09,23,08,19,11.90
2009,09,23,08,20,11.90
2009,09,23,08,21,12.00
2009,09,23,08,22,12.00
2009,09,23,08,23,12.00
2009,09,23,08,24,12.00
2009,09,23,08,25,12.10
2009,09,23,08,26,12.10
2009,09,23,08,27,12.10
2009,09,23,08,28,12.10
2009,09,23,08,29,12.20
2009,09,23,08,30,12.20
2009,09,23,08,31,12.30
2009,09,23,08,32,12.30
2009,09,23,08,33,12.30
2009,09,23,08,34,12.40
2009,09,23,08,35,12.40
2009,09,23,08,36,12.50
2009,09,23,08,37,12.50
2009,09,23,08,38,12.60
2009,09,23,08,39,12.60
2009,09,23,08,40,12.60
2009,09,23,08,41,12.70
2009,09,23,08,42,12.70
2009,09,23,08,43,12.80
2009,09,23,08,44,12.80
2009,09,23,08,45,12.90
2009,09,23,08,46,12.90
2009,09,23,08,47,13.00
2009,09,23,08,48,13.00
2009,09,23,08,49,13.10
2009,09,23,08,50,13.10
2009,09,23,08,51,13.10
2009,09,23,08,52,13.20
2009,09,23,08,53,13.20
2009,09,23,08,54,13.30
2009,09,23,08,55,13.40
2009,09,23,08,56,13.40
2009,09,23,08,57,13.50
2009,09,23,08,58,13.50
2009,09,23,08,59,13.60
2009,09,23,09,00,13.70
2009,09,23,09,01,13.80
2009,09,23,09,02,13.80
2009,09,23,09,03,13.90
2009,09,23,09,04,14.00
2009,09,23,09,05,14.00
2009,09,23,09,06,14.10
2009,09,23,09,07,14.20
2009,09,23,09,08,14.30
2009,09,23,09,09,14.30
2009,09,23,09,10,14.30
2009,09,23,09,11,14.40
2009,09,23,09,12,14.40
2009,09,23,09,13,14.50
2009,09,23,09,14,14.60
2009,09,23,09,15,14.60
2009,09,23,09,16,14.70
2009,09,23,09,17,14.70
2009,09,23,09,18,14.80
2009,09,23,09,19,14.80
2009,09,23,09,20,14.90
2009,09,23,09,21,15.00
2009,09,23,09,22,15.00
2009,09,23,09,23,15.00
2009,09,23,09,24,15.00
2009,09,23,09,25,15.00
2009,09,23,09,26,15.00
2009,09,23,09,27,15.00
2009,09,23,09,28,15.00
2009,09,23,09,29,15.00
2009,09,23,09,30,15.10
2009,09,23,09,31,15.10
2009,09,23,09,32,15.20
2009,09,23,09,33,15.30
2009,09,23,09,34,15.30
2009,09,23,09,35,15.40
2009,09,23,09,36,15.50
2009,09,23,09,37,15.60
2009,09,23,09,38,15.60
2009,09,23,09,39,15.70
2009,09,23,09,40,15.80
2009,09,23,09,41,15.80
2009,09,23,09,42,15.80
2009,09,23,09,43,15.90
2009,09,23,09,44,15.90
2009,09,23,09,45,16.00
2009,09,23,09,46,16.00
2009,09,23,09,47,16.00
2009,09,23,09,48,16.10
2009,09,23,09,49,16.10
2009,09,23,09,50,16.20
2009,09,23,09,51,16.20
2009,09,23,09,52,16.30
2009,09,23,09,53,16.30
2009,09,23,09,54,16.40
2009,09,23,09,55,16.40
2009,09,23,09,56,16.50
2009,09,23,09,57,16.60
2009,09,23,09,58,16.70
2009,09,23,09,59,16.80
2009,09,23,10,00,16.90
2009,09,23,10,01,17.00
2009,09,23,10,02,17.10
2009,09,23,10,03,17.10
2009,09,23,10,04,17.20
2009,09,23,10,05,17.30
2009,09,23,10,06,17.30
2009,09,23,10,07,17.40
2009,09,23,10,08,17.50
2009,09,23,10,09,17.50
2009,09,23,10,10,17.60
2009,09,23,10,11,17.70
2009,09,23,10,12,17.80
2009,09,23,10,13,17.90
2009,09,23,10,14,17.90
2009,09,23,10,15,18.00
2009,09,23,10,16,18.10
2009,09,23,10,17,18.20
2009,09,23,10,18,18.20
2009,09,23,10,19,18.30
2009,09,23,10,20,18.40
2009,09,23,10,21,18.40
2009,09,23,10,22,18.50
2009,09,23,10,23,18.60
2009,09,23,10,24,18.70
2009,09,23,10,25,18.70
2009,09,23,10,26,18.80
2009,09,23,10,27,18.80
2009,09,23,10,28,18.90
2009,09,23,10,29,19.00
2009,09,23,10,30,19.00
2009,09,23,10,31,19.10
2009,09,23,10,32,19.20
2009,09,23,10,33,19.30
2009,09,23,10,34,19.40
2009,09,23,10,35,19.50
2009,09,23,10,36,19.60
2009,09,23,10,37,19.70
2009,09,23,10,38,19.70
2009,09,23,10,39,19.70
2009,09,23,10,40,19.70
2009,09,23,10,41,19.80
2009,09,23,10,42,19.80
2009,09,23,10,43,19.80
2009,09,23,10,44,19.90
2009,09,23,10,45,19.90
2009,09,23,10,46,19.90
2009,09,23,10,47,20.00
2009,09,23,10,48,20.10
2009,09,23,10,49,20.10
2009,09,23,10,50,20.20
2009,09,23,10,51,20.30
2009,09,23,10,52,20.40
2009,09,23,10,53,20.50
2009,09,23,10,54,20.60
2009,09,23,10,55,20.80
2009,09,23,10,56,20.90
2009,09,23,10,57,21.00
2009,09,23,10,58,21.10
2009,09,23,10,59,21.20
2009,09,23,11,00,21.40
2009,09,23,11,01,21.50
2009,09,23,11,02,21.60
2009,09,23,11,03,21.60
2009,09,23,11,04,21.70
2009,09,23,11,05,21.60
2009,09,23,11,06,21.60
2009,09,23,11,07,21.70
2009,09,23,11,08,21.70
2009,09,23,11,09,21.70
2009,09,23,11,10,21.70
2009,09,23,11,11,21.70
2009,09,23,11,12,21.70
2009,09,23,11,13,21.70
2009,09,23,11,14,21.70
2009,09,23,11,15,21.70
2009,09,23,11,16,21.80
2009,09,23,11,17,21.80
2009,09,23,11,18,21.90
2009,09,23,11,19,21.90
2009,09,23,11,20,22.00
2009,09,23,11,21,22.00
2009,09,23,11,22,22.10
2009,09,23,11,23,22.10
2009,09,23,11,24,22.10
2009,09,23,11,25,22.20
2009,09,23,11,26,22.20
2009,09,23,11,27,22.30
2009,09,23,11,28,22.30
2009,09,23,11,29,22.40
2009,09,23,11,30,22.50
2009,09,23,11,31,22.60
2009,09,23,11,32,22.70
2009,09,23,11,33,22.70
2009,09,23,11,34,22.80
2009,09,23,11,35,22.90
2009,09,23,11,36,23.00
2009,09,23,11,37,23.10
2009,09,23,11,38,23.20
2009,09,23,11,39,23.30
2009,09,23,11,40,23.40
2009,09,23,11,41,23.50
2009,09,23,11,42,23.60
2009,09,23,11,43,23.60
2009,09,23,11,44,23.70
2009,09,23,11,45,23.70
2009,09,23,11,46,23.70
2009,09,23,11,47,23.70
2009,09,23,11,48,23.80
2009,09,23,11,49,23.80
2009,09,23,11,50,23.90
2009,09,23,11,51,23.90
2009,09,23,11,52,24.00
2009,09,23,11,53,24.10
2009,09,23,11,54,24.20
2009,09,23,11,55,24.30
2009,09,23,11,56,24.40
2009,09,23,11,57,24.60
2009,09,23,11,58,24.80
2009,09,23,11,59,24.90
2009,09,23,12,00,25.00
2009,09,23,12,01,25.20
2009,09,23,12,02,25.30
2009,09,23,12,03,25.40
2009,09,23,12,04,25.60
2009,09,23,12,05,25.70
2009,09,23,12,06,25.80
2009,09,23,12,07,25.90
2009,09,23,12,08,26.00
2009,09,23,12,09,26.10
2009,09,23,12,10,26.20
2009,09,23,12,11,26.30
2009,09,23,12,12,26.40
2009,09,23,12,13,26.50
2009,09,23,12,14,26.50
2009,09,23,12,15,26.60
2009,09,23,12,16,26.60
2009,09,23,12,17,26.70
2009,09,23,12,18,26.70
2009,09,23,12,19,26.70
2009,09,23,12,20,26.70
2009,09,23,12,21,26.70
2009,09,23,12,22,26.70
2009,09,23,12,23,26.70
2009,09,23,12,24,26.70
2009,09,23,12,25,26.80
2009,09,23,12,26,26.80
2009,09,23,12,27,26.70
2009,09,23,12,28,26.70
2009,09,23,12,29,26.70
2009,09,23,12,30,26.70
2009,09,23,12,31,26.60
2009,09,23,12,32,26.60
2009,09,23,12,33,26.60
2009,09,23,12,34,26.60
2009,09,23,12,35,26.70
2009,09,23,12,36,26.60
2009,09,23,12,37,26.50
2009,09,23,12,38,26.50
2009,09,23,12,39,26.40
2009,09,23,12,40,26.40
2009,09,23,12,41,26.40
2009,09,23,12,42,26.50
2009,09,23,12,43,26.50
2009,09,23,12,44,26.50
2009,09,23,12,45,26.60
2009,09,23,12,46,26.70
2009,09,23,12,47,26.70
2009,09,23,12,48,26.70
2009,09,23,12,49,26.80
2009,09,23,12,50,26.80
2009,09,23,12,51,26.90
2009,09,23,12,52,26.80
2009,09,23,12,53,26.90
2009,09,23,12,54,26.90
2009,09,23,12,55,26.90
2009,09,23,12,56,26.90
2009,09,23,12,57,26.90
2009,09,23,12,58,26.90
2009,09,23,12,59,27.00
2009,09,23,13,00,27.00
2009,09,23,13,01,27.10
2009,09,23,13,02,27.10
2009,09,23,13,03,27.20
2009,09,23,13,04,27.30
2009,09,23,13,05,27.30
2009,09,23,13,06,27.40
2009,09,23,13,07,27.40
2009,09,23,13,08,27.40
2009,09,23,13,09,27.50
2009,09,23,13,10,27.50
2009,09,23,13,11,27.60
2009,09,23,13,12,27.60
2009,09,23,13,13,27.60
2009,09,23,13,14,27.70
2009,09,23,13,15,27.70
2009,09,23,13,16,27.80
2009,09,23,13,17,27.80
2009,09,23,13,18,27.80
2009,09,23,13,19,27.80
2009,09,23,13,20,27.80
2009,09,23,13,21,27.70
2009,09,23,13,22,27.70
2009,09,23,13,23,27.70
2009,09,23,13,24,27.70
2009,09,23,13,25,27.70
2009,09,23,13,26,27.70
2009,09,23,13,27,27.60
2009,09,23,13,28,27.60
2009,09,23,13,29,27.60
2009,09,23,13,30,27.50
2009,09,23,13,31,27.40
2009,09,23,13,32,27.40
2009,09,23,13,33,27.30
2009,09,23,13,34,27.30
2009,09,23,13,35,27.30
2009,09,23,13,36,27.30
2009,09,23,13,37,27.30
2009,09,23,13,38,27.30
2009,09,23,13,39,27.40
2009,09,23,13,40,27.40
2009,09,23,13,41,27.40
2009,09,23,13,42,27.30
2009,09,23,13,43,27.30
2009,09,23,13,44,27.30
2009,09,23,13,45,27.30
2009,09,23,13,46,27.30
2009,09,23,13,47,27.20
2009,09,23,13,48,27.20
2009,09,23,13,49,27.10
2009,09,23,13,50,27.00
2009,09,23,13,51,26.90
2009,09,23,13,52,26.90
2009,09,23,13,53,26.90
2009,09,23,13,54,26.90
2009,09,23,13,55,26.90
2009,09,23,13,56,26.80
2009,09,23,13,57,26.70
2009,09,23,13,58,26.60
2009,09,23,13,59,26.60
2009,09,23,14,00,26.60
2009,09,23,14,01,26.70
2009,09,23,14,02,26.70
2009,09,23,14,03,26.80
2009,09,23,14,04,26.80
2009,09,23,14,05,26.90
2009,09,23,14,06,26.90
2009,09,23,14,07,26.90
2009,09,23,14,08,26.90
2009,09,23,14,09,26.90
2009,09,23,14,10,26.90
2009,09,23,14,11,27.00
2009,09,23,14,12,27.10
2009,09,23,14,13,27.10
2009,09,23,14,14,27.20
2009,09,23,14,15,27.20
2009,09,23,14,16,27.30
2009,09,23,14,17,27.40
2009,09,23,14,18,27.40
2009,09,23,14,19,27.40
2009,09,23,14,20,27.50
2009,09,23,14,21,27.50
2009,09,23,14,22,27.60
2009,09,23,14,23,27.60
2009,09,23,14,24,27.70
2009,09,23,14,25,27.70
2009,09,23,14,26,27.70
2009,09,23,14,27,27.70
2009,09,23,14,28,27.70
2009,09,23,14,29,27.60
2009,09,23,14,30,27.60
2009,09,23,14,31,27.50
2009,09,23,14,32,27.50
2009,09,23,14,33,27.40
2009,09,23,14,34,27.40
2009,09,23,14,35,27.30
2009,09,23,14,36,27.30
2009,09,23,14,37,27.30
2009,09,23,14,38,27.20
2009,09,23,14,39,27.10
2009,09,23,14,40,27.10
2009,09,23,14,41,27.00
2009,09,23,14,42,26.90
2009,09,23,14,43,26.90
2009,09,23,14,44,26.80
2009,09,23,14,45,26.80
2009,09,23,14,46,26.80
2009,09,23,14,47,26.80
2009,09,23,14,48,26.80
2009,09,23,14,49,26.80
2009,09,23,14,50,26.80
2009,09,23,14,51,26.90
2009,09,23,14,52,26.80
2009,09,23,14,53,26.90
2009,09,23,14,54,26.80
2009,09,23,14,55,26.80
2009,09,23,14,56,26.80
2009,09,23,14,57,26.80
2009,09,23,14,58,26.80
2009,09,23,14,59,26.80
2009,09,23,15,00,26.90
2009,09,23,15,01,26.90
2009,09,23,15,02,26.90
2009,09,23,15,03,26.90
2009,09,23,15,04,27.00
2009,09,23,15,05,27.00
2009,09,23,15,06,27.00
2009,09,23,15,07,26.90
2009,09,23,15,08,26.90
2009,09,23,15,09,26.80
2009,09,23,15,10,26.80
2009,09,23,15,11,26.70
2009,09,23,15,12,26.70
2009,09,23,15,13,26.80
2009,09,23,15,14,26.80
2009,09,23,15,15,26.80
2009,09,23,15,16,26.80
2009,09,23,15,17,26.80
2009,09,23,15,18,26.70
2009,09,23,15,19,26.70
2009,09,23,15,20,26.60
2009,09,23,15,21,26.60
2009,09,23,15,22,26.50
2009,09,23,15,23,26.50
2009,09,23,15,24,26.50
2009,09,23,15,25,26.60
2009,09,23,15,26,26.60
2009,09,23,15,27,26.60
2009,09,23,15,28,26.60
2009,09,23,15,29,26.60
2009,09,23,15,30,26.60
2009,09,23,15,31,26.60
2009,09,23,15,32,26.60
2009,09,23,15,33,26.60
2009,09,23,15,34,26.50
2009,09,23,15,35,26.50
2009,09,23,15,36,26.40
2009,09,23,15,37,26.30
2009,09,23,15,38,26.30
2009,09,23,15,39,26.40
2009,09,23,15,40,26.40
2009,09,23,15,41,26.40
2009,09,23,15,42,26.40
2009,09,23,15,43,26.40
2009,09,23,15,44,26.40
2009,09,23,15,45,26.40
2009,09,23,15,46,26.50
2009,09,23,15,47,26.50
2009,09,23,15,48,26.60
2009,09,23,15,49,26.70
2009,09,23,15,50,26.70
2009,09,23,15,51,26.80
2009,09,23,15,52,26.80
2009,09,23,15,53,26.90
2009,09,23,15,54,26.90
2009,09,23,15,55,27.00
2009,09,23,15,56,27.00
2009,09,23,15,57,27.00
2009,09,23,15,58,27.00
2009,09,23,15,59,27.00
2009,09,23,16,00,27.00
2009,09,23,16,01,27.00
2009,09,23,16,02,27.10
2009,09,23,16,03,27.10
2009,09,23,16,04,27.10
2009,09,23,16,05,27.10
2009,09,23,16,06,27.20
2009,09,23,16,07,27.20
2009,09,23,16,08,27.30
2009,09,23,16,09,27.40
2009,09,23,16,10,27.50
2009,09,23,16,11,27.60
2009,09,23,16,12,27.60
2009,09,23,16,13,27.70
2009,09,23,16,14,27.80
2009,09,23,16,15,27.90
2009,09,23,16,16,27.90
2009,09,23,16,17,27.90
2009,09,23,16,18,28.00
2009,09,23,16,19,28.10
2009,09,23,16,20,28.10
2009,09,23,16,21,28.10
2009,09,23,16,22,28.10
2009,09,23,16,23,28.20
2009,09,23,16,24,28.20
2009,09,23,16,25,28.10
2009,09,23,16,26,28.10
2009,09,23,16,27,28.10
2009,09,23,16,28,28.00
2009,09,23,16,29,28.00
2009,09,23,16,30,28.00
2009,09,23,16,31,27.90
2009,09,23,16,32,27.80
2009,09,23,16,33,27.80
2009,09,23,16,34,27.70
2009,09,23,16,35,27.70
2009,09,23,16,36,27.70
2009,09,23,16,37,27.70
2009,09,23,16,38,27.80
2009,09,23,16,39,27.70
2009,09,23,16,40,27.50
2009,09,23,16,41,27.40
2009,09,23,16,42,27.30
2009,09,23,16,43,27.30
2009,09,23,16,44,27.30
2009,09,23,16,45,27.30
2009,09,23,16,46,27.30
2009,09,23,16,47,27.40
2009,09,23,16,48,27.50
2009,09,23,16,49,27.50
2009,09,23,16,50,27.60
2009,09,23,16,51,27.60
2009,09,23,16,52,27.50
2009,09,23,16,53,27.50
2009,09,23,16,54,27.50
2009,09,23,16,55,27.50
2009,09,23,16,56,27.50
2009,09,23,16,57,27.60
2009,09,23,16,58,27.70
2009,09,23,16,59,27.80
2009,09,23,17,00,27.80
2009,09,23,17,01,27.80
2009,09,23,17,02,27.80
2009,09,23,17,03,27.80
2009,09,23,17,04,27.80
2009,09,23,17,05,27.80
2009,09,23,17,06,27.70
2009,09,23,17,07,27.70
2009,09,23,17,08,27.60
2009,09,23,17,09,27.60
2009,09,23,17,10,27.50
2009,09,23,17,11,27.50
2009,09,23,17,12,27.40
2009,09,23,17,13,27.40
2009,09,23,17,14,27.30
2009,09,23,17,15,27.30
2009,09,23,17,16,27.30
2009,09,23,17,17,27.30
2009,09,23,17,18,27.30
2009,09,23,17,19,27.30